Change the Weather History Date:

Friday, August 22, 2014

  Actual Average Record
Temperature  
Mean Temperature 57 °F 64 °F  
Max Temperature 61 °F 79 °F 98 °F (1976)
Min Temperature 53 °F 49 °F 34 °F (1992)
Degree Days  
Heating Degree Days 8 3  
Month to date heating degree days 14 45  
Since 1 June heating degree days 310 345  
Since 1 July heating degree days 24 118  
Cooling Degree Days 0 2  
Month to date cooling degree days 122 73  
Year to date cooling degree days 276 183  
Since 1 June cooling degree days 276 181  
Growing Degree Days 7 (Base 50)    
Moisture  
Dew Point 53 °F    
Average Humidity 90    
Maximum Humidity 93    
Minimum Humidity 86    
Precipitation  
Precipitation 0.68 in 0.05 in 1.66 in (1992)
Month to date precipitation 2.06 1.24  
Year to date precipitation 11.08 12.51  
Snow  
Snow 0.00 in - - ()
Snow Depth 0.00 in    
Sea Level Pressure  
Sea Level Pressure 30.10 in    
Wind  
Wind Speed 5 mph (North)    
Max Wind Speed 15 mph    
Max Gust Speed 19 mph    
Visibility 6 miles    
Events Fog , Rain    
T = Trace of Precipitation, MM = Missing Value Source: NWS Daily Summary

Daily Weather History Graph

Daily Weather History Graph

Search for Another Location

Airport or City:

Trip Planner

Search our weather history database for the weather conditions in past years. The results will help you decide how hot, cold, wet, or windy it might be!

Date:

Astronomy

Aug. 22, 2014 Rise Set
Actual Time 6:24 AM MDT 8:16 PM MDT
Civil Twilight 5:51 AM MDT 8:48 PM MDT
Nautical Twilight 5:11 AM MDT 9:28 PM MDT
Astronomical Twilight 4:27 AM MDT 10:12 PM MDT
Moon 3:45 AM MDT (8/22) 6:30 PM MDT (8/22)
Length of Visible Light 14h 57m
Length of Day
13h 52m
Waning Crescent, 7% of the Moon is Illuminated
Aug 22
Waning Crescent
Aug 25
New
Sep 2
First Quarter
Sep 8
Full
Sep 15
Last Quarter

Hourly Weather History & Observations

Time (MDT) Temp. Dew Point Humidity Pressure Visibility Wind Dir Wind Speed Gust Speed Precip Events Conditions
12:09 AM 55.0 °F 53.1 °F 93% 30.14 in 6.0 mi WNW 5.8 mph - N/A   Overcast
12:21 AM 55.0 °F 53.1 °F 93% 30.14 in 1.8 mi WNW 5.8 mph - N/A   Overcast
12:35 AM 54.0 °F 52.0 °F 93% 30.14 in 0.8 mi West 6.9 mph - N/A   Mist
12:54 AM 54.0 °F 52.0 °F 93% 30.09 in 0.5 mi West 8.1 mph - N/A Fog Fog
1:10 AM 54.0 °F 52.0 °F 93% 30.14 in 1.0 mi West 6.9 mph - N/A   Mist
1:22 AM 54.0 °F 52.0 °F 93% 30.14 in 0.5 mi WNW 6.9 mph - N/A Fog Fog
1:54 AM 53.1 °F 51.1 °F 93% 30.09 in 0.8 mi West 6.9 mph - N/A   Mist
2:01 AM 53.1 °F 52.0 °F 96% 30.14 in 1.0 mi West 4.6 mph - N/A   Mist
2:44 AM 53.1 °F 51.1 °F 93% 30.13 in 0.8 mi WNW 3.5 mph - N/A   Mist
3:54 AM 53.1 °F 52.0 °F 96% 30.08 in 0.5 mi Calm Calm - N/A Fog Fog
4:28 AM 53.1 °F 51.1 °F 93% 30.13 in 1.2 mi Calm Calm - N/A   Overcast
4:39 AM 53.1 °F 51.1 °F 93% 30.13 in 1.8 mi Calm Calm - N/A   Overcast
4:42 AM 53.1 °F 51.1 °F 93% 30.13 in 3.0 mi Calm Calm - N/A   Overcast
4:54 AM 53.1 °F 51.1 °F 93% 30.08 in 6.0 mi Calm Calm - N/A   Overcast
5:20 AM 53.1 °F 51.1 °F 93% 30.13 in 2.5 mi Calm Calm - N/A   Overcast
5:36 AM 53.1 °F 51.1 °F 93% 30.13 in 2.5 mi Calm Calm - N/A   Overcast
5:44 AM 53.1 °F 52.0 °F 96% 30.13 in 1.2 mi Calm Calm - 0.00 in Rain Light Rain
5:52 AM 53.6 °F 51.8 °F 94% 30.13 in 0.8 mi Calm Calm - 0.00 in Rain Light Rain
6:21 AM 53.1 °F 51.1 °F 93% 30.13 in 1.0 mi Calm Calm - 0.00 in Rain Light Rain
6:33 AM 53.1 °F 52.0 °F 96% 30.13 in 3.0 mi Calm Calm - 0.01 in Rain Light Rain
6:54 AM 53.1 °F 51.1 °F 93% 30.08 in 4.0 mi Calm Calm - 0.01 in Rain Light Rain
7:54 AM 54.0 °F 52.0 °F 93% 30.08 in 10.0 mi Calm Calm - 0.01 in Rain Light Rain
8:54 AM 55.0 °F 53.1 °F 93% 30.08 in 7.0 mi Calm Calm - 0.01 in Rain Light Rain
9:22 AM 55.0 °F 53.1 °F 93% 30.12 in 5.0 mi NNE 3.5 mph - 0.03 in Rain Light Rain
9:43 AM 55.0 °F 53.1 °F 93% 30.12 in 6.0 mi NNE 3.5 mph - 0.05 in Rain Light Rain
9:54 AM 55.9 °F 54.0 °F 93% 30.08 in 7.0 mi North 3.5 mph - 0.05 in Rain Light Rain
10:45 AM 59.0 °F 55.0 °F 87% 30.12 in 10.0 mi NNE 3.5 mph - 0.01 in Rain Light Rain
10:54 AM 57.9 °F 54.0 °F 87% 30.07 in 10.0 mi Variable 3.5 mph - 0.01 in   Overcast
11:23 AM 57.9 °F 54.0 °F 87% 30.11 in 2.5 mi Variable 4.6 mph - 0.05 in Rain Rain
11:30 AM 59.0 °F 54.0 °F 83% 30.11 in 8.0 mi ESE 4.6 mph - 0.06 in Rain Light Rain
11:40 AM 59.0 °F 54.0 °F 83% 30.11 in 10.0 mi ESE 5.8 mph - 0.06 in Rain Light Rain
11:54 AM 59.0 °F 53.1 °F 81% 30.06 in 10.0 mi East 6.9 mph - 0.06 in Rain Light Rain
12:02 PM 60.1 °F 53.1 °F 78% 30.11 in 10.0 mi East 9.2 mph - 0.00 in   Overcast
12:54 PM 61.0 °F 53.1 °F 75% 30.05 in 10.0 mi East 9.2 mph - 0.00 in   Overcast
1:54 PM 59.0 °F 53.1 °F 81% 30.05 in 7.0 mi ENE 8.1 mph - 0.00 in Rain Light Rain
2:05 PM 61.0 °F 54.0 °F 78% 30.10 in 10.0 mi East 10.4 mph - 0.00 in Rain Light Rain
2:13 PM 60.1 °F 53.1 °F 78% 30.10 in 10.0 mi East 10.4 mph - 0.00 in Rain Light Rain
2:25 PM 60.1 °F 54.0 °F 80% 30.10 in 10.0 mi ENE 6.9 mph - 0.00 in   Overcast
2:35 PM 60.1 °F 54.0 °F 80% 30.10 in 10.0 mi ENE 9.2 mph - 0.00 in   Overcast
3:10 PM 55.9 °F 53.1 °F 90% 30.10 in 4.0 mi NW 9.2 mph - 0.03 in Rain Light Rain
3:19 PM 55.9 °F 54.0 °F 93% 30.09 in 9.0 mi NW 8.1 mph - 0.03 in Rain Light Rain
3:26 PM 55.9 °F 53.1 °F 90% 30.09 in 7.0 mi NW 8.1 mph - 0.04 in Rain Light Rain
3:36 PM 55.9 °F 54.0 °F 93% 30.09 in 2.5 mi NW 8.1 mph - 0.06 in Rain Rain
3:45 PM 55.9 °F 54.0 °F 93% 30.09 in 3.0 mi NW 6.9 mph - 0.07 in Rain Light Rain
3:54 PM 55.9 °F 54.0 °F 93% 30.06 in 3.0 mi NW 6.9 mph - 0.09 in Rain Rain
4:03 PM 55.9 °F 54.0 °F 93% 30.10 in 6.0 mi NW 6.9 mph - 0.01 in Rain Light Rain
4:16 PM 57.0 °F 54.0 °F 89% 30.10 in 10.0 mi NNW 5.8 mph - 0.01 in Rain Light Rain
4:54 PM 57.9 °F 55.0 °F 90% 30.05 in 6.0 mi NNE 8.1 mph - 0.02 in Rain Light Rain
5:17 PM 57.9 °F 55.0 °F 90% 30.10 in 10.0 mi North 10.4 mph - 0.00 in Rain Light Rain
5:39 PM 57.9 °F 55.0 °F 90% 30.10 in 10.0 mi North 8.1 mph - 0.00 in   Overcast
5:52 PM 57.2 °F 55.4 °F 94% 30.10 in 10.0 mi North 10.4 mph - 0.00 in Rain Light Rain
5:54 PM 57.9 °F 55.0 °F 90% 30.05 in 10.0 mi North 10.4 mph - 0.00 in Rain Light Rain
6:08 PM 57.0 °F 54.0 °F 89% 30.10 in 3.0 mi North 10.4 mph - 0.03 in Rain Rain
6:15 PM 57.0 °F 54.0 °F 89% 30.10 in 2.5 mi North 10.4 mph - 0.04 in Rain Rain
6:23 PM 57.0 °F 54.0 °F 89% 30.10 in 5.0 mi North 10.4 mph - 0.05 in Rain Light Rain
6:28 PM 57.0 °F 54.0 °F 89% 30.10 in 8.0 mi North 11.5 mph - 0.05 in Rain Light Rain
6:35 PM 57.0 °F 54.0 °F 89% 30.10 in 10.0 mi North 11.5 mph - 0.05 in Rain Light Rain
6:54 PM 57.0 °F 54.0 °F 89% 30.06 in 10.0 mi North 10.4 mph - 0.06 in Rain Light Rain
7:17 PM 55.9 °F 53.1 °F 90% 30.10 in 10.0 mi North 12.7 mph - 0.00 in   Overcast
7:23 PM 55.0 °F 53.1 °F 93% 30.10 in 10.0 mi North 12.7 mph - 0.00 in   Overcast
7:54 PM 55.9 °F 53.1 °F 90% 30.06 in 10.0 mi North 11.5 mph - 0.00 in   Overcast
8:21 PM 55.9 °F 53.1 °F 90% 30.09 in 10.0 mi North 9.2 mph - N/A   Overcast
8:40 PM 55.9 °F 53.1 °F 90% 30.09 in 10.0 mi North 8.1 mph - N/A   Overcast
8:54 PM 55.9 °F 54.0 °F 93% 30.05 in 10.0 mi North 9.2 mph - N/A   Overcast
9:32 PM 55.9 °F 54.0 °F 93% 30.11 in 4.0 mi West 5.8 mph - 0.05 in Rain Rain
9:54 PM 55.9 °F 54.0 °F 93% 30.06 in 4.0 mi NW 4.6 mph - 0.11 in Rain Rain
10:14 PM 55.9 °F 54.0 °F 93% 30.10 in 7.0 mi WNW 5.8 mph - 0.02 in Rain Light Rain
10:52 PM 55.4 °F 53.6 °F 94% 30.09 in 2.5 mi Calm Calm - 0.13 in Rain Rain
10:54 PM 55.9 °F 54.0 °F 93% 30.04 in 2.5 mi Calm Calm - 0.13 in Rain Rain
11:14 PM 55.9 °F 54.0 °F 93% 30.09 in 7.0 mi NNE 3.5 mph - 0.02 in Rain Light Rain
11:54 PM 55.9 °F 54.0 °F 93% 30.03 in 5.0 mi NNW 3.5 mph - 0.07 in Rain Rain